Weather in Boyevoy

Russia / Omsk Oblast     54°56′04″N   71°26′58″E
temp.,
°C
wind,
m/s
gust,
m/s
humid.,
%
clouds,
%
prec.,
mm/h
press.,
hPa
HPBL,
m
11 may, tue
tue1100:00+10nne34500 0.0 102460
03:00+9nne35570 0.0 102477
06:00+8n36610 0.0 102595
09:00+14n47470 0.0 1025500
12:00+18nne67375 0.0 10251758
15:00+20nne67290 0.0 10252033
18:00+20n67280 0.0 10251940
21:00+15nne22410 0.0 102511
12 may, wed
wed1200:00+13nw2243100 0.0 102610
03:00+12w3351100 0.0 102537
06:00+11wnw35559 0.0 102582
09:00+17nw573741 0.0 1024371
12:00+21nw6827100 0.0 10231614
15:00+21nw71031100 0.0 10221877
18:00+19nnw6950100 0.0 10221580
21:00+15nnw3752100 0.0 1023147
13 may, thu
thu1300:00+12nnw3362100 0.0 102347
03:00+13nw3858100 0.0 1023306
06:00+11nw3869100 0.0 1023224
09:00+14nnw4763100 0.0 1023571
12:00+14nw377359 0.1 1022450
15:00+18nw4854100 0.0 1021843
18:00+20nnw61150100 0.3 10201789
21:00+17n3465100 0.0 102175
14 may, fri
fri1400:00+13nnw35785 0.0 102382
03:00+11n36861 0.0 1024108
06:00+9nne410863 0.0 1027294
09:00+13nne57455 0.0 1028644
12:00+16nne45303 0.0 10291086
15:00+19n34253 0.0 10281386
18:00+20nw232511 0.0 10271335
21:00+16wsw113763 0.0 102711
15 may, sat
sat1500:00+14ssw343757 0.0 102644
03:00+13ssw493998 0.0 1025128
06:00+13wsw4114393 0.0 1024187
09:00+20w6114481 0.1 1023466
12:00+26w68378 0.1 10211107
15:00+29wnw7829100 0.0 10203529
18:00+27nw463099 0.1 10172865
21:00